QPF
0.00 0.00 0.00 0.00 0.00 0.00 0.00 0.00 0.00 0.00 0.00 0.00 0.00 0.00 0.00 0.00 0.00 0.00 0.00 0.00 0.00 0.00 0.00 0.00 0.00 0.00 0.00 0.00 0.00 0.00 0.00 0.00 0.04 0.00 0.00 0.00 0.00 0.00 0.00 0.00 0.00 0.00 0.00 0.00 0.00
0.00 0.00 0.00 0.00 0.00 0.00 0.00 0.00 0.00 0.00 0.00 0.00 0.00 0.00 0.00 0.00 0.00 0.00 0.00 0.00 0.00 0.00 0.00 0.00 0.00 0.00 0.00 0.00 0.00 0.00 0.00 0.00 0.00 0.00 0.00 0.00 0.00 0.00 0.00 0.00 0.00 0.00 0.00 0.00 0.00
0.00 0.00 0.00 0.00 0.00 0.00 0.00 0.00 0.00 0.00 0.00 0.00 0.00 0.00 0.00 0.00 0.00 0.00 0.00 0.00 0.00 0.00 0.00 0.00 0.00 0.00 0.00 0.00 0.00 0.00 0.00 0.00 0.00 0.00 0.00 0.00 0.00 0.00 0.00 0.00 0.00 0.00 0.00 0.00 0.00
0.00 0.00 0.00 0.00 0.00 0.00 0.00 0.00 0.00 0.00 0.00 0.00 0.00 0.00 0.00 0.00 0.00 0.00 0.00 0.00 0.00 0.00 0.00 0.00 0.00 0.00 0.00 0.00 0.00 0.00 0.00 0.00 0.00 0.00 0.00 0.00 0.00 0.00 0.00 0.00 0.00 0.00 0.00 0.00 0.00
0.00 0.00 0.00 0.00 0.00 0.00 0.00 0.00 0.00 0.00 0.00 0.00 0.00 0.00 0.00 0.00 0.00 0.00 0.00 0.00 0.00 0.00 0.00 0.00 0.00 0.00 0.00 0.00 0.00 0.00 0.00 0.00 0.00 0.00 0.00 0.00 0.00 0.00 0.00 0.00 0.00 0.00 0.00 0.00 0.00
0.00 0.00 0.00 0.00 0.00 0.00 0.00 0.00 0.00 0.00 0.00 0.00 0.00 0.00 0.00 0.00 0.00 0.00 0.00 0.00 0.00 0.00 0.00 0.00 0.00 0.00 0.00 0.00 0.00 0.00 0.00 0.00 0.00 0.00 0.00 0.00 0.00 0.00 0.00 0.00 0.00 0.00 0.00 0.00 0.00
0.00 0.00 0.00 0.00 0.00 0.00 0.00 0.00 0.00 0.00 0.00 0.00 0.00 0.00 0.00 0.00 0.00 0.00 0.00 0.00 0.00 0.00 0.00 0.00 0.00 0.00 0.00 0.00 0.00 0.00 0.00 0.00 0.00 0.00 0.00 0.00 0.00 0.00 0.00 0.00 0.00 0.00 0.00 0.00 0.00
0.00 0.00 0.00 0.00 0.00 0.00 0.00 0.00 0.00 0.00 0.00 0.00 0.00 0.00 0.00 0.00 0.00 0.00 0.00 0.00 0.00 0.00 0.00 0.00 0.00 0.00 0.00 0.00 0.00 0.00 0.00 0.00 0.00 0.00 0.00 0.00 0.00 0.00 0.00 0.00 0.00 0.00 0.00 0.00 0.00
0.00 0.00 0.00 0.00 0.00 0.00 0.00 0.00 0.00 0.00 0.00 0.00 0.00 0.00 0.00 0.00 0.00 0.00 0.00 0.00 0.00 0.00 0.00 0.00 0.00 0.00 0.00 0.00 0.00 0.00 0.00 0.00 0.00 0.00 0.00 0.00 0.00 0.00 0.00 0.00 0.00 0.00 0.00 0.00 0.00
0.00 0.00 0.00 0.00 0.00 0.00 0.00 0.00 0.00 0.00 0.00 0.00 0.00 0.00 0.00 0.00 0.00 0.00 0.00 0.00 0.00 0.00 0.00 0.00 0.00 0.00 0.00 0.00 0.00 0.00 0.00 0.00 0.00 0.00 0.00 0.00 0.00 0.00 0.00 0.00 0.00 0.00 0.00 0.00 0.00
0.00 0.00 0.00 0.00 0.00 0.00 0.00 0.00 0.00 0.00 0.00 0.00 0.00 0.00 0.00 0.00 0.00 0.00 0.00 0.00 0.00 0.00 0.00 0.00 0.00 0.00 0.00 0.00 0.00 0.00 0.00 0.00 0.00 0.00 0.00 0.00 0.00 0.00 0.00 0.00 0.00 0.00 0.00 0.00 0.00
0.00 0.00 0.00 0.00 0.00 0.00 0.00 0.00 0.00 0.00 0.00 0.00 0.00 0.00 0.00 0.00 0.00 0.00 0.00 0.00 0.00 0.00 0.00 0.00 0.00 0.00 0.00 0.00 0.00 0.00 0.00 0.00 0.00 0.00 0.00 0.00 0.00 0.00 0.00 0.00 0.00 0.00 0.00 0.00 0.00
0.00 0.00 0.00 0.00 0.00 0.00 0.00 0.00 0.00 0.00 0.00 0.00 0.00 0.00 0.00 0.00 0.00 0.00 0.00 0.00 0.00 0.00 0.00 0.00 0.00 0.00 0.00 0.00 0.00 0.00 0.00 0.00 0.00 0.00 0.00 0.00 0.00 0.00 0.00 0.00 0.00 0.00 0.00 0.00 0.00
0.00 0.00 0.00 0.00 0.00 0.00 0.00 0.00 0.00 0.00 0.00 0.00 0.00 0.00 0.00 0.00 0.00 0.00 0.00 0.00 0.00 0.00 0.00 0.00 0.00 0.00 0.00 0.00 0.00 0.00 0.00 0.00 0.00 0.00 0.00 0.00 0.00 0.00 0.00 0.00 0.00 0.00 0.00 0.00 0.00
0.00 0.00 0.00 0.00 0.00 0.00 0.00 0.00 0.00 0.00 0.00 0.00 0.00 0.00 0.00 0.00 0.00 0.00 0.00 0.00 0.00 0.00 0.00 0.00 0.00 0.00 0.00 0.00 0.00 0.00 0.00 0.00 0.00 0.00 0.00 0.00 0.00 0.00 0.00 0.00 0.00 0.00 0.00 0.00 0.00
0.00 0.00 0.00 0.00 0.00 0.00 0.00 0.00 0.00 0.00 0.00 0.00 0.00 0.00 0.00 0.00 0.00 0.00 0.00 0.00 0.00 0.00 0.00 0.00 0.00 0.00 0.00 0.00 0.00 0.00 0.00 0.00 0.00 0.00 0.00 0.00 0.00 0.00 0.00 0.00 0.00 0.00 0.00 0.00 0.00
0.00 0.00 0.00 0.00 0.00 0.00 0.00 0.00 0.00 0.00 0.00 0.00 0.00 0.00 0.00 0.00 0.00 0.00 0.00 0.00 0.00 0.00 0.00 0.00 0.00 0.00 0.00 0.00 0.00 0.00 0.00 0.00 0.00 0.00 0.00 0.00 0.00 0.00 0.00 0.00 0.00 0.00 0.00 0.00 0.00
0.00 0.00 0.00 0.00 0.00 0.00 0.00 0.00 0.00 0.00 0.00 0.00 0.00 0.00 0.00 0.00 0.00 0.00 0.00 0.00 0.00 0.00 0.00 0.00 0.00 0.00 0.00 0.00 0.00 0.00 0.00 0.00 0.00 0.00 0.00 0.00 0.00 0.00 0.00 0.00 0.00 0.00 0.00 0.00 0.00
0.00 0.00 0.00 0.00 0.00 0.00 0.00 0.00 0.00 0.00 0.00 0.00 0.00 0.00 0.00 0.00 0.00 0.00 0.00 0.00 0.00 0.00 0.00 0.00 0.00 0.00 0.00 0.00 0.00 0.00 0.00 0.00 0.00 0.00 0.00 0.00 0.00 0.01 0.01 0.00 0.02 0.00 0.00 0.00 0.00
0.00 0.00 0.00 0.00 0.00 0.00 0.00 0.00 0.00 0.00 0.00 0.00 0.00 0.00 0.00 0.00 0.00 0.00 0.00 0.00 0.00 0.00 0.00 0.00 0.00 0.00 0.00 0.00 0.00 0.00 0.00 0.00 0.00 0.00 0.00 0.00 0.00 0.01 0.01 0.02 0.03 0.00 0.00 0.00 0.00
0.00 0.00 0.00 0.00 0.00 0.00 0.00 0.00 0.00 0.00 0.00 0.00 0.00 0.00 0.00 0.00 0.00 0.00 0.00 0.00 0.00 0.00 0.00 0.00 0.00 0.00 0.00 0.00 0.00 0.00 0.00 0.00 0.00 0.00 0.00 0.02 0.04 0.03 0.04 0.16 0.10 0.09 0.05 0.00 0.00
0.00 0.00 0.00 0.00 0.00 0.00 0.00 0.00 0.00 0.00 0.00 0.00 0.00 0.00 0.00 0.00 0.00 0.00 0.00 0.00 0.00 0.00 0.00 0.00 0.00 0.00 0.00 0.00 0.00 0.00 0.00 0.00 0.00 0.00 0.00 0.00 0.00 0.00 0.03 0.23 0.24 0.14 0.09 0.04 0.00
0.00 0.00 0.00 0.00 0.00 0.00 0.00 0.00 0.00 0.00 0.00 0.00 0.00 0.00 0.00 0.00 0.00 0.00 0.00 0.00 0.00 0.00 0.00 0.00 0.00 0.00 0.00 0.00 0.00 0.00 0.00 0.00 0.00 0.00 0.00 0.00 0.01 0.05 0.06 0.09 0.03 0.02 0.03 0.00 0.00
0.00 0.00 0.00 0.00 0.00 0.00 0.00 0.00 0.00 0.00 0.00 0.00 0.00 0.00 0.00 0.00 0.00 0.00 0.00 0.01 0.01 0.00 0.00 0.00 0.00 0.00 0.00 0.00 0.00 0.00 0.00 0.00 0.00 0.00 0.00 0.00 0.00 0.02 0.04 0.03 0.01 0.01 0.01 0.00 0.01
0.00 0.00 0.00 0.00 0.00 0.00 0.00 0.00 0.00 0.00 0.00 0.00 0.00 0.00 0.00 0.00 0.00 0.00 0.01 0.01 0.01 0.01 0.00 0.00 0.00 0.00 0.00 0.00 0.00 0.00 0.00 0.00 0.00 0.00 0.00 0.00 0.00 0.02 0.04 0.01 0.00 0.01 0.02 0.01 0.04
0.00 0.00 0.00 0.00 0.00 0.00 0.00 0.00 0.00 0.00 0.00 0.00 0.00 0.00 0.00 0.00 0.00 0.01 0.02 0.02 0.02 0.02 0.00 0.00 0.00 0.00 0.00 0.00 0.00 0.00 0.00 0.00 0.00 0.00 0.00 0.00 0.04 0.23 0.08 0.01 0.03 0.05 0.05 0.08 0.08
0.00 0.00 0.00 0.00 0.00 0.00 0.00 0.00 0.00 0.00 0.00 0.00 0.00 0.00 0.00 0.00 0.00 0.00 0.00 0.02 0.02 0.01 0.00 0.00 0.00 0.00 0.00 0.00 0.00 0.00 0.00 0.00 0.00 0.00 0.00 0.00 0.00 0.06 0.02 0.01 0.02 0.02 0.04 0.03 0.01
MSLP
1019.22 1018.89 1018.57 1018.14 1017.79 1017.36 1016.91 1016.51 1016.13 1015.60 1015.12 1014.41 1013.99 1013.22 1012.40 1011.95 1010.52 1009.75 1009.03 1007.35 1007.21 1007.13 1007.45 1007.14 1006.85 1006.64 1006.66 1006.66 1006.25 1006.01 1007.34 1009.08 1008.74 1007.80 1005.17 1003.42 1002.63 1002.09 1002.57 1003.49 1004.18 1005.10 1006.25 1007.67 1008.40
1019.26 1018.91 1018.50 1017.98 1017.58 1017.17 1016.81 1016.45 1016.03 1015.60 1015.08 1014.42 1013.95 1013.15 1012.30 1012.05 1011.02 1008.81 1007.35 1007.01 1007.15 1007.24 1007.47 1007.26 1006.95 1006.49 1006.73 1006.23 1006.07 1005.96 1006.52 1007.30 1006.28 1005.13 1004.22 1002.92 1002.28 1002.03 1003.07 1004.11 1005.22 1006.10 1006.96 1007.76 1008.37
1019.20 1018.89 1018.59 1018.11 1017.61 1017.24 1016.87 1016.37 1015.82 1015.39 1014.97 1014.42 1013.95 1013.10 1012.29 1012.06 1010.86 1007.68 1006.89 1007.00 1007.31 1007.32 1007.39 1007.27 1006.70 1006.76 1006.41 1005.99 1005.79 1005.29 1005.46 1005.80 1004.73 1003.45 1003.40 1002.80 1001.63 1001.52 1003.10 1004.54 1005.13 1006.18 1007.02 1007.78 1008.38
1019.24 1018.88 1018.50 1018.07 1017.64 1017.14 1016.59 1016.08 1015.51 1015.21 1014.86 1014.45 1013.97 1013.21 1011.89 1011.62 1009.63 1006.98 1006.77 1007.07 1007.15 1007.14 1007.37 1006.85 1006.41 1006.50 1006.30 1006.13 1005.16 1005.21 1004.18 1003.70 1003.27 1002.57 1001.98 1001.96 1001.52 1002.07 1002.56 1003.86 1004.93 1006.02 1006.72 1007.56 1008.24
1019.23 1018.84 1018.44 1018.05 1017.40 1016.81 1016.45 1015.92 1015.42 1015.00 1014.82 1014.45 1014.04 1013.44 1012.15 1010.87 1007.90 1006.37 1006.66 1007.03 1007.09 1007.01 1007.00 1006.86 1006.60 1006.27 1006.18 1005.66 1005.10 1004.91 1004.08 1003.11 1002.33 1002.08 1002.04 1001.65 1001.65 1002.32 1003.12 1003.74 1004.71 1005.69 1006.62 1007.41 1008.03
1019.03 1018.76 1018.31 1017.82 1017.33 1016.67 1015.84 1015.44 1015.11 1014.87 1014.45 1014.33 1014.05 1013.56 1012.92 1010.33 1006.00 1005.88 1006.35 1006.98 1006.78 1006.82 1006.41 1006.28 1005.88 1005.54 1005.67 1005.50 1005.30 1004.34 1004.04 1003.34 1002.31 1002.19 1001.77 1001.76 1001.76 1001.89 1003.36 1003.70 1004.80 1005.51 1006.35 1006.93 1007.53
1019.14 1018.70 1018.33 1017.71 1017.13 1016.34 1015.79 1015.32 1014.79 1014.38 1014.14 1014.03 1013.97 1013.52 1012.10 1008.43 1005.81 1006.13 1005.97 1006.13 1006.10 1006.22 1006.09 1005.30 1005.21 1005.39 1005.35 1005.53 1004.60 1004.40 1004.29 1003.39 1002.44 1002.00 1001.87 1001.60 1001.86 1002.49 1002.92 1003.42 1004.51 1005.39 1005.88 1006.53 1007.07
1019.13 1018.64 1017.98 1017.22 1016.74 1016.15 1015.26 1014.62 1014.43 1013.86 1013.57 1013.64 1013.71 1013.13 1010.74 1006.37 1005.61 1005.59 1005.56 1005.42 1005.34 1005.32 1005.39 1005.00 1004.96 1005.23 1005.52 1005.46 1005.27 1005.30 1004.45 1004.23 1002.92 1002.15 1001.77 1001.75 1002.35 1002.55 1002.64 1003.02 1004.24 1005.20 1005.70 1006.21 1006.71
1019.14 1018.44 1017.88 1017.21 1016.24 1015.41 1015.06 1014.21 1013.29 1013.26 1012.90 1012.98 1013.22 1012.55 1008.98 1005.47 1005.47 1004.92 1004.88 1005.12 1005.11 1005.14 1005.25 1005.09 1005.32 1005.85 1005.90 1006.28 1006.54 1005.86 1005.37 1004.71 1003.67 1002.34 1001.95 1001.99 1002.78 1002.61 1002.46 1002.73 1003.82 1004.65 1005.52 1006.15 1006.60
1019.03 1018.48 1017.72 1016.76 1016.03 1015.27 1014.44 1013.04 1012.07 1012.61 1012.06 1012.20 1011.88 1011.53 1007.61 1005.05 1004.35 1004.32 1004.32 1004.64 1005.01 1005.15 1005.52 1005.54 1005.98 1006.47 1006.61 1006.76 1006.72 1006.16 1005.43 1004.60 1003.58 1002.25 1001.89 1002.00 1002.47 1002.37 1002.34 1002.75 1003.53 1004.27 1005.04 1005.76 1006.41
1018.95 1018.28 1017.38 1016.47 1015.86 1015.37 1014.28 1012.50 1011.95 1012.40 1011.42 1009.97 1009.15 1007.56 1005.55 1004.45 1003.92 1004.01 1004.25 1004.82 1005.15 1005.49 1005.82 1005.91 1006.75 1006.62 1006.52 1006.23 1005.97 1005.51 1005.14 1004.47 1002.89 1001.68 1001.87 1001.65 1002.09 1002.06 1001.96 1002.36 1003.39 1004.03 1004.69 1005.34 1005.89
1018.51 1017.88 1017.23 1016.25 1015.19 1014.30 1014.39 1013.14 1011.65 1011.30 1009.91 1008.56 1007.45 1007.06 1005.73 1005.21 1004.63 1003.85 1004.06 1004.86 1005.16 1005.43 1005.75 1006.30 1006.13 1005.78 1005.72 1005.43 1005.23 1004.82 1004.62 1003.83 1002.53 1001.34 1001.21 1001.48 1001.85 1002.02 1002.34 1002.97 1003.51 1004.03 1004.50 1005.02 1005.66
1018.76 1017.80 1016.77 1015.51 1014.53 1013.52 1013.18 1011.64 1010.62 1010.29 1009.81 1006.61 1005.76 1005.67 1005.34 1005.29 1004.73 1003.95 1004.08 1004.67 1005.23 1005.70 1005.62 1005.56 1005.09 1005.05 1004.97 1004.61 1004.42 1003.94 1003.76 1003.13 1002.59 1001.65 1000.81 1001.48 1002.37 1002.67 1002.37 1003.09 1003.30 1003.85 1004.38 1005.00 1005.49
1018.89 1018.07 1017.14 1015.99 1014.40 1013.67 1012.26 1011.06 1010.35 1010.04 1009.36 1005.64 1004.60 1003.93 1004.54 1005.06 1004.35 1003.49 1003.70 1004.61 1005.28 1005.44 1005.64 1005.10 1004.53 1004.20 1004.04 1003.85 1003.51 1003.35 1002.55 1002.36 1002.22 1002.65 1002.39 1002.08 1003.54 1003.60 1003.56 1003.77 1003.80 1004.01 1004.64 1004.93 1005.50
1018.88 1018.17 1017.22 1016.88 1016.12 1014.37 1012.68 1011.37 1010.64 1010.68 1008.47 1004.29 1003.75 1003.19 1003.63 1004.72 1003.47 1002.94 1002.96 1003.82 1004.39 1005.01 1005.26 1004.05 1003.83 1003.52 1003.18 1002.95 1002.55 1002.63 1002.05 1002.26 1002.28 1003.02 1003.52 1003.40 1003.74 1003.40 1003.78 1004.19 1004.19 1004.58 1005.17 1005.56 1006.21
1018.69 1018.21 1017.72 1015.97 1015.88 1013.90 1012.41 1011.51 1011.06 1010.51 1006.80 1003.55 1003.18 1003.08 1003.88 1004.39 1003.97 1003.44 1003.70 1003.91 1004.33 1004.84 1004.45 1004.06 1003.35 1003.06 1002.43 1002.10 1001.91 1001.84 1002.12 1002.55 1003.14 1003.52 1003.93 1003.93 1004.04 1003.66 1003.72 1003.22 1004.22 1004.92 1005.54 1005.97 1006.95
1018.39 1017.95 1017.84 1017.13 1015.22 1013.17 1012.27 1011.66 1011.19 1009.07 1005.62 1005.06 1004.26 1003.99 1003.91 1003.77 1003.82 1003.70 1004.00 1004.41 1004.79 1005.02 1004.69 1004.46 1003.17 1002.32 1001.85 1001.86 1001.57 1001.84 1002.62 1003.79 1004.59 1004.50 1004.34 1003.94 1004.03 1002.95 1001.96 1002.43 1003.43 1004.88 1006.00 1007.01 1008.28
1018.06 1017.30 1016.50 1015.77 1014.37 1013.49 1012.90 1012.25 1010.81 1008.35 1007.01 1006.26 1005.91 1005.39 1005.08 1004.54 1003.85 1003.47 1003.72 1004.15 1004.45 1004.88 1004.99 1004.44 1003.34 1002.07 1001.18 1001.21 1001.55 1001.90 1002.75 1003.77 1004.40 1004.67 1004.54 1004.30 1003.77 1002.64 1002.14 1002.88 1004.55 1005.84 1007.07 1008.21 1009.43
1017.99 1016.40 1016.01 1014.18 1014.09 1013.67 1013.63 1012.49 1010.44 1009.12 1008.04 1007.58 1006.98 1006.47 1006.12 1005.64 1005.14 1004.23 1003.77 1003.58 1003.73 1004.12 1004.70 1004.30 1002.51 1001.69 1000.80 1000.56 1000.82 1001.56 1002.07 1002.83 1004.19 1004.67 1005.40 1005.03 1004.78 1004.05 1004.02 1005.19 1005.83 1006.56 1007.60 1008.66 1009.67
1018.87 1016.86 1014.82 1013.80 1013.91 1014.04 1013.91 1012.60 1010.79 1009.64 1008.84 1008.64 1008.71 1008.24 1007.94 1007.48 1006.83 1005.93 1004.99 1004.11 1003.66 1003.10 1003.50 1003.47 1003.50 1001.77 1000.58 1000.04 1000.09 1000.48 1001.87 1002.90 1003.74 1004.99 1005.74 1005.51 1005.16 1005.04 1006.14 1006.96 1007.01 1007.84 1008.40 1009.33 1010.15
1018.80 1016.66 1014.66 1014.01 1014.04 1014.32 1014.04 1012.54 1011.35 1010.10 1009.73 1009.82 1009.83 1009.73 1009.45 1008.85 1008.21 1007.30 1006.29 1005.04 1004.19 1003.68 1003.01 1003.24 1003.49 1001.81 1001.42 1000.02 999.94 1000.74 1001.56 1002.65 1003.50 1004.72 1005.75 1006.38 1007.25 1006.32 1007.72 1009.24 1010.10 1010.61 1010.23 1010.22 1010.92
1018.14 1016.25 1014.68 1014.21 1014.58 1013.95 1013.53 1012.50 1011.66 1010.77 1010.32 1010.28 1010.47 1010.44 1010.27 1009.87 1009.09 1008.30 1007.11 1006.29 1004.89 1005.37 1004.61 1002.85 1002.61 1002.53 1001.03 1000.00 999.71 999.87 1000.88 1002.15 1003.47 1004.46 1005.32 1006.44 1008.60 1008.28 1008.60 1010.29 1011.76 1013.20 1010.35 1011.26 1011.16
1018.81 1016.31 1014.73 1014.48 1014.74 1014.40 1013.80 1013.17 1012.54 1011.68 1011.36 1011.11 1011.10 1011.13 1011.08 1010.62 1010.04 1008.71 1007.60 1006.28 1006.09 1006.58 1005.97 1004.22 1002.05 1002.31 1001.18 1000.07 998.91 998.89 999.92 1000.90 1002.01 1003.11 1004.81 1006.95 1009.48 1010.62 1010.10 1010.96 1011.86 1011.80 1010.31 1009.78 1010.52
1019.42 1016.68 1015.29 1014.95 1014.89 1015.05 1014.65 1013.91 1013.14 1012.78 1012.24 1012.07 1011.83 1011.68 1011.45 1010.96 1010.35 1009.39 1008.20 1006.71 1006.70 1006.80 1005.87 1004.66 1002.14 1001.41 1000.80 999.68 998.88 999.12 999.30 999.96 1001.18 1002.73 1003.84 1005.80 1009.00 1010.39 1010.37 1010.82 1012.03 1011.08 1010.41 1010.33 1011.11
1019.45 1017.21 1016.70 1015.99 1015.62 1015.51 1015.31 1014.86 1014.12 1013.47 1012.87 1012.51 1012.14 1011.95 1011.81 1011.29 1010.68 1009.81 1009.14 1008.11 1007.18 1007.01 1006.21 1004.92 1001.45 1000.59 1000.02 999.58 999.45 998.80 998.52 999.16 1000.13 1001.16 1002.93 1005.42 1006.98 1009.10 1009.88 1009.93 1010.10 1010.56 1011.05 1010.96 1012.05
1019.91 1018.52 1017.88 1017.36 1016.72 1016.37 1015.82 1015.14 1014.40 1013.83 1013.44 1012.87 1012.57 1011.93 1011.92 1011.25 1010.99 1010.70 1010.52 1009.66 1008.79 1007.73 1007.73 1004.98 1002.11 1000.71 1000.04 999.62 999.36 998.72 998.46 998.64 999.28 1000.07 1002.06 1004.48 1007.20 1008.49 1009.26 1008.86 1010.34 1009.76 1010.88 1011.28 1011.98
1019.63 1019.00 1018.76 1017.97 1017.01 1016.71 1015.91 1015.35 1014.91 1014.57 1013.75 1012.82 1012.55 1011.82 1011.57 1011.11 1010.46 1009.70 1010.25 1010.21 1009.38 1009.66 1007.65 1007.07 1004.03 1001.10 1000.63 1000.00 999.86 999.44 998.57 998.34 998.88 999.38 1001.13 1003.39 1005.85 1007.17 1008.48 1008.68 1009.63 1009.77 1010.77 1011.67 1012.78
Thickness
5699 5702 5706 5710 5715 5720 5725 5734 5742 5750 5759 5768 5773 5784 5793 5800 5815 5822 5820 5842 5846 5849 5849 5851 5852 5852 5853 5844 5852 5854 5795 5770 5778 5786 5824 5861 5857 5874 5879 5858 5862 5858 5846 5842 5845
5697 5700 5704 5709 5714 5719 5724 5731 5738 5746 5755 5764 5771 5782 5792 5797 5808 5821 5842 5847 5848 5848 5844 5839 5835 5846 5833 5840 5842 5826 5795 5797 5825 5840 5840 5862 5865 5867 5856 5849 5842 5844 5850 5849 5845
5698 5700 5702 5707 5712 5717 5722 5727 5733 5742 5752 5760 5768 5779 5790 5796 5804 5827 5845 5846 5846 5847 5846 5843 5844 5840 5829 5839 5836 5832 5807 5827 5844 5861 5857 5860 5871 5878 5852 5834 5844 5835 5840 5844 5843
5697 5700 5703 5706 5710 5716 5722 5726 5731 5738 5748 5755 5764 5774 5791 5797 5786 5835 5844 5844 5846 5847 5841 5840 5839 5827 5823 5819 5842 5822 5844 5851 5857 5868 5871 5865 5877 5861 5862 5853 5859 5852 5851 5846 5840
5696 5698 5701 5705 5710 5716 5719 5725 5731 5737 5743 5751 5759 5769 5785 5790 5808 5841 5843 5843 5844 5844 5836 5831 5826 5826 5813 5826 5834 5829 5841 5856 5867 5869 5871 5878 5866 5857 5854 5866 5866 5859 5852 5844 5840
5697 5699 5702 5706 5710 5715 5723 5727 5731 5735 5741 5748 5755 5764 5773 5774 5840 5844 5842 5838 5840 5837 5836 5836 5833 5838 5825 5825 5822 5840 5839 5846 5863 5862 5872 5863 5864 5864 5855 5869 5857 5855 5848 5849 5844
5692 5697 5699 5705 5710 5717 5721 5726 5731 5735 5741 5746 5751 5760 5770 5787 5839 5838 5842 5839 5843 5840 5830 5846 5847 5835 5835 5819 5843 5840 5824 5838 5851 5860 5859 5873 5850 5845 5861 5865 5855 5851 5850 5849 5847
5691 5694 5700 5706 5711 5717 5726 5731 5733 5738 5741 5746 5749 5758 5766 5824 5835 5837 5839 5839 5846 5848 5844 5850 5851 5837 5830 5834 5828 5815 5823 5800 5837 5855 5862 5862 5821 5854 5866 5860 5851 5849 5849 5846 5846
5691 5696 5700 5705 5712 5720 5724 5733 5742 5743 5747 5749 5751 5757 5771 5826 5820 5834 5840 5827 5835 5839 5841 5847 5838 5819 5821 5800 5784 5804 5781 5797 5814 5850 5855 5848 5825 5854 5867 5864 5848 5849 5845 5843 5843
5691 5695 5701 5709 5714 5720 5727 5741 5750 5748 5755 5754 5759 5751 5788 5801 5822 5830 5840 5833 5821 5822 5816 5817 5808 5789 5790 5782 5754 5776 5786 5799 5806 5842 5849 5839 5832 5851 5862 5858 5849 5846 5847 5845 5842
5690 5695 5701 5708 5713 5718 5728 5742 5746 5741 5750 5758 5768 5780 5800 5817 5828 5819 5827 5815 5813 5804 5782 5798 5770 5761 5781 5795 5803 5802 5797 5796 5823 5849 5842 5840 5839 5850 5858 5856 5846 5845 5846 5846 5847
5693 5697 5702 5711 5719 5725 5725 5734 5744 5748 5740 5768 5778 5783 5797 5805 5792 5811 5822 5793 5789 5776 5789 5774 5761 5793 5803 5805 5803 5803 5794 5798 5825 5854 5848 5842 5842 5853 5854 5848 5844 5843 5844 5845 5844
5690 5698 5706 5715 5722 5730 5732 5741 5754 5758 5736 5769 5784 5785 5785 5792 5782 5793 5805 5794 5780 5769 5778 5766 5785 5804 5798 5794 5794 5799 5792 5800 5808 5842 5857 5842 5829 5834 5846 5849 5852 5849 5847 5844 5841
5688 5694 5701 5710 5723 5727 5733 5745 5751 5754 5714 5763 5775 5789 5789 5782 5776 5808 5809 5790 5774 5762 5772 5771 5796 5794 5788 5787 5797 5774 5819 5824 5824 5810 5790 5836 5771 5812 5822 5826 5837 5844 5843 5842 5838
5686 5691 5699 5701 5706 5715 5729 5742 5748 5736 5703 5771 5774 5802 5790 5768 5785 5790 5810 5789 5768 5765 5766 5773 5780 5782 5780 5791 5807 5793 5822 5818 5822 5801 5798 5805 5778 5804 5820 5808 5820 5830 5836 5841 5831
5685 5688 5692 5703 5704 5718 5729 5737 5733 5701 5706 5761 5771 5767 5762 5766 5768 5778 5778 5784 5781 5763 5772 5772 5795 5790 5789 5805 5809 5820 5809 5803 5803 5791 5751 5784 5780 5783 5800 5818 5814 5820 5830 5835 5827
5684 5687 5688 5691 5702 5720 5726 5722 5696 5692 5759 5737 5742 5752 5750 5754 5754 5760 5749 5743 5733 5722 5732 5753 5771 5793 5803 5781 5800 5799 5779 5733 5730 5733 5738 5798 5783 5790 5832 5837 5824 5814 5820 5819 5811
5684 5689 5693 5696 5705 5711 5711 5697 5686 5722 5723 5739 5733 5734 5725 5738 5746 5752 5743 5729 5742 5735 5724 5720 5723 5772 5798 5784 5773 5776 5768 5729 5714 5727 5752 5796 5767 5792 5834 5837 5822 5812 5805 5802 5795
5680 5691 5691 5704 5701 5702 5687 5675 5689 5703 5716 5708 5715 5707 5710 5723 5724 5731 5731 5730 5740 5741 5709 5710 5732 5781 5791 5799 5791 5772 5762 5788 5755 5769 5748 5763 5787 5799 5810 5801 5796 5793 5793 5789 5785
5668 5679 5692 5698 5695 5687 5670 5668 5686 5702 5705 5699 5675 5690 5679 5689 5692 5699 5706 5727 5729 5748 5745 5735 5706 5758 5781 5801 5797 5780 5789 5753 5753 5723 5715 5756 5769 5764 5772 5770 5784 5779 5777 5775 5775
5662 5673 5684 5689 5685 5667 5652 5667 5677 5693 5690 5675 5665 5661 5665 5670 5676 5677 5685 5709 5726 5733 5747 5737 5718 5739 5758 5762 5760 5764 5759 5759 5757 5747 5721 5731 5737 5780 5771 5753 5745 5749 5751 5759 5759
5659 5662 5676 5679 5654 5661 5655 5669 5671 5675 5677 5668 5661 5655 5651 5655 5656 5660 5667 5685 5723 5712 5699 5732 5719 5707 5735 5771 5789 5781 5764 5755 5733 5732 5747 5748 5726 5763 5754 5736 5719 5705 5714 5730 5754
5642 5657 5670 5664 5638 5643 5651 5652 5655 5655 5652 5650 5642 5644 5641 5633 5622 5645 5655 5693 5694 5678 5681 5705 5719 5699 5720 5747 5774 5770 5774 5771 5765 5759 5740 5733 5719 5733 5742 5732 5726 5721 5735 5759 5759
5630 5638 5651 5649 5645 5634 5630 5631 5633 5640 5635 5634 5628 5625 5617 5612 5617 5609 5628 5664 5669 5673 5683 5695 5705 5712 5705 5730 5760 5754 5770 5776 5757 5734 5747 5746 5715 5725 5732 5728 5718 5737 5744 5751 5746
5622 5632 5630 5620 5625 5624 5620 5617 5615 5614 5622 5620 5611 5606 5595 5579 5581 5588 5599 5620 5648 5657 5673 5682 5705 5728 5746 5758 5754 5765 5773 5774 5759 5763 5751 5743 5736 5730 5731 5732 5737 5740 5734 5737 5724
5603 5608 5611 5608 5610 5607 5605 5605 5607 5608 5605 5600 5592 5595 5580 5569 5563 5562 5570 5593 5607 5634 5641 5678 5696 5731 5731 5751 5757 5759 5773 5778 5778 5781 5773 5751 5730 5737 5737 5747 5732 5741 5736 5731 5722
5600 5600 5596 5597 5601 5596 5599 5598 5598 5595 5599 5599 5589 5582 5571 5567 5576 5586 5580 5588 5599 5606 5631 5642 5674 5713 5709 5745 5738 5728 5755 5778 5782 5793 5775 5748 5738 5747 5738 5737 5733 5735 5729 5725 5720